This is the latest recevied weather packets stored in our database for station/object W4MLN-3. If no packets are shown the sender has not sent any weather packets the latest 10 day(s).
| Time | Temp. | Humidity | Pressure | Rain* | Wind** | Luminosity | Snow |
|---|---|---|---|---|---|---|---|
| 1787935203 | 27.22° C | 65% | 1021.1 hPa | 0 mm | - | - | - |
| 1787934903 | 26.67° C | 64% | 1021.2 hPa | 0 mm | - | - | - |
| 1787934603 | 26.67° C | 66% | 1021.3 hPa | 0 mm | - | - | - |
| 1787934303 | 26.67° C | 62% | 1021.3 hPa | 0 mm | - | - | - |
| 1787934004 | 26.67° C | 63% | 1021.3 hPa | 0 mm | - | - | - |
| 1787933703 | 26.67° C | 64% | 1021.3 hPa | 0 mm | - | - | - |
| 1787933403 | 26.11° C | 65% | 1021.2 hPa | 0 mm | - | - | - |
| 1787933103 | 26.67° C | 63% | 1021.2 hPa | 0 mm | - | - | - |
| 1787932824 | 26.67° C | 63% | 1021.2 hPa | 0 mm | - | - | - |
| 1787932503 | 26.67° C | 65% | 1021.2 hPa | 0 mm | - | - | - |
| 1787932203 | 26.11° C | 66% | 1021.2 hPa | 0 mm | - | - | - |
| 1787931903 | 26.11° C | 66% | 1021.1 hPa | 0 mm | - | - | - |
| 1787931624 | 26.11° C | 66% | 1021.1 hPa | 0 mm | - | - | - |
| 1787931303 | 26.11° C | 63% | 1021.1 hPa | 0 mm | - | - | - |
| 1787931003 | 26.11° C | 64% | 1021.2 hPa | 0 mm | - | - | - |
| 1787930704 | 26.67° C | 63% | 1021.2 hPa | 0 mm | - | - | - |
| 1787930403 | 26.67° C | 62% | 1021.1 hPa | 0 mm | - | - | - |
| 1787930113 | 26.67° C | 66% | 1021.2 hPa | 0 mm | - | - | - |
| 1787929803 | 26.67° C | 64% | 1021.1 hPa | 0 mm | - | - | - |
| 1787929503 | 26.11° C | 64% | 1021.2 hPa | 0 mm | - | - | - |
| 1787929224 | 26.11° C | 66% | 1021.2 hPa | 0 mm | - | - | - |
| 1787928904 | 25.56° C | 65% | 1021.1 hPa | 0 mm | - | - | - |
| 1787928603 | 25.56° C | 68% | 1021.2 hPa | 0 mm | - | - | - |
| 1787928324 | 25° C | 68% | 1021.1 hPa | 0 mm | - | - | - |
| 1787928003 | 25° C | 67% | 1021.2 hPa | 0 mm | - | - | - |
* Rain latest hour (hover to see other rain measurements)
** Current wind speed in m/s (hover to see current wind gust speed)